Terug naar catalogus

STARLINK-11452

ActiefCommunicatieVLEO
NORAD 62511·PAYLOAD·🇺🇸 United States

Gelanceerd Jan 8, 2025 vanaf Cape Canaveral Space Force Station

Loading…

Volgende Passages (komende 24 uur)

TLE

VersSource: CelesTrak SupGP

Epoch: Sep 15, 2026, 02:49 UTC

1 62511C 25004A   26258.11784722 -.00066674  00000+0 -51793-3 0  2587
2 62511  43.0011   8.8893 0001678 260.5325   4.9677 15.70868123    12

Volg STARLINK-11452 in realtime met AllMySat

Download on the App Store